PAL1783 RPLL-RPVP

Flight info

Callsign PAL1783
Flight time 0h 58m
Altitude 36000
Route BUCAL2R BUCAL M646 NOMYO NOMYO2W
Aircraft A21N/M-SDE3FGHIRWY/LB1

Departure

Time 2026-04-26 12:43
Airport Ninoy Aquino International Airport (RPLL)

Arrival

Time 2026-04-26 13:42
Airport Puerto Princesa International Airport / PAF Antonio Bautista Air Base (RPVP)
Time Latitude Longitude Altitude Speed Heading
2026-04-26 12:29 14.50270 121.00188 82 ft 0 kts 274°
2026-04-26 12:34 14.50270 121.00196 82 ft 2 kts 274°
2026-04-26 12:34 14.50269 121.00211 82 ft 2 kts 274°
2026-04-26 12:34 14.50268 121.00227 82 ft 2 kts 274°
2026-04-26 12:35 14.50267 121.00238 82 ft 0 kts 274°
2026-04-26 12:35 14.50267 121.00252 82 ft 2 kts 251°
2026-04-26 12:35 14.50275 121.00266 82 ft 2 kts 230°
2026-04-26 12:35 14.50286 121.00276 82 ft 2 kts 206°
2026-04-26 12:36 14.50298 121.00280 82 ft 0 kts 188°
2026-04-26 12:36 14.50305 121.00281 82 ft 1 kts 185°
2026-04-26 12:39 14.50302 121.00280 82 ft 1 kts 185°
2026-04-26 12:39 14.50287 121.00279 82 ft 3 kts 185°
2026-04-26 12:39 14.50254 121.00281 82 ft 6 kts 158°
2026-04-26 12:39 14.50209 121.00307 82 ft 8 kts 150°
2026-04-26 12:40 14.50157 121.00337 82 ft 8 kts 159°
2026-04-26 12:40 14.50109 121.00311 82 ft 9 kts 238°
2026-04-26 12:40 14.50075 121.00250 82 ft 9 kts 240°
2026-04-26 12:40 14.50040 121.00187 82 ft 10 kts 240°
2026-04-26 12:41 14.50002 121.00118 82 ft 11 kts 240°
2026-04-26 12:41 14.49962 121.00047 82 ft 11 kts 240°
2026-04-26 12:41 14.49923 120.99979 82 ft 10 kts 228°
2026-04-26 12:41 14.49857 120.99975 82 ft 10 kts 148°
2026-04-26 12:42 14.49804 121.00027 82 ft 10 kts 96°
2026-04-26 12:42 14.49820 121.00074 82 ft 6 kts 64°
2026-04-26 12:42 14.49842 121.00118 82 ft 7 kts 61°
2026-04-26 12:42 14.49899 121.00220 82 ft 42 kts 60°
2026-04-26 12:43 14.50164 121.00698 82 ft 109 kts 59°
2026-04-26 12:43 14.50644 121.01561 83 ft 163 kts 61°
2026-04-26 12:43 14.51263 121.02642 414 ft 179 kts 62°
2026-04-26 12:43 14.51897 121.03773 989 ft 185 kts 60°
2026-04-26 12:44 14.52520 121.04888 1750 ft 179 kts 59°
2026-04-26 12:44 14.53122 121.05989 2367 ft 175 kts 60°
2026-04-26 12:44 14.53727 121.07087 2887 ft 177 kts 60°
2026-04-26 12:44 14.54341 121.08194 3373 ft 181 kts 60°
2026-04-26 12:45 14.54987 121.09359 3687 ft 196 kts 60°
2026-04-26 12:45 14.55698 121.10640 3994 ft 212 kts 60°
2026-04-26 12:45 14.56353 121.12061 4242 ft 231 kts 76°
2026-04-26 12:45 14.56323 121.13779 4507 ft 251 kts 105°
2026-04-26 12:46 14.55415 121.15376 4935 ft 267 kts 132°
2026-04-26 12:46 14.54059 121.16718 5601 ft 272 kts 134°
2026-04-26 12:46 14.52720 121.18082 6283 ft 275 kts 133°
2026-04-26 12:46 14.51359 121.19488 6960 ft 277 kts 133°
2026-04-26 12:47 14.49983 121.20915 7645 ft 280 kts 133°
2026-04-26 12:47 14.48606 121.22340 8304 ft 284 kts 134°
2026-04-26 12:47 14.46979 121.23473 8886 ft 291 kts 159°
2026-04-26 12:47 14.44954 121.23743 9505 ft 296 kts 185°
2026-04-26 12:48 14.42989 121.23074 10060 ft 301 kts 212°
2026-04-26 12:48 14.41415 121.21609 10510 ft 310 kts 228°
2026-04-26 12:48 14.39972 121.19904 10808 ft 324 kts 229°
2026-04-26 12:48 14.38491 121.18141 11256 ft 330 kts 229°
2026-04-26 12:49 14.36956 121.16340 11847 ft 332 kts 228°
2026-04-26 12:49 14.35417 121.14558 12418 ft 333 kts 228°
2026-04-26 12:49 14.33882 121.12794 13005 ft 335 kts 228°
2026-04-26 12:49 14.32312 121.10996 13554 ft 337 kts 228°
2026-04-26 12:50 14.30737 121.09197 14095 ft 339 kts 228°
2026-04-26 12:50 14.29130 121.07413 14588 ft 340 kts 225°
2026-04-26 12:50 14.27368 121.05768 15089 ft 342 kts 220°
2026-04-26 12:50 14.25474 121.04313 15601 ft 344 kts 216°
2026-04-26 12:51 14.23480 121.02901 16076 ft 346 kts 215°
2026-04-26 12:51 14.21500 121.01512 16523 ft 348 kts 215°
2026-04-26 12:51 14.19478 121.00094 16957 ft 350 kts 215°
2026-04-26 12:51 14.17461 120.98677 17385 ft 352 kts 215°
2026-04-26 12:52 14.15428 120.97246 17807 ft 354 kts 216°
2026-04-26 12:52 14.13395 120.95812 18204 ft 356 kts 216°
2026-04-26 12:52 14.11327 120.94352 18592 ft 358 kts 216°
2026-04-26 12:52 14.09277 120.92907 18972 ft 360 kts 216°
2026-04-26 12:53 14.07198 120.91442 19350 ft 362 kts 216°
2026-04-26 12:53 14.05106 120.89968 19715 ft 364 kts 216°
2026-04-26 12:53 14.03000 120.88485 19915 ft 366 kts 216°
2026-04-26 12:53 14.00881 120.86995 20063 ft 369 kts 216°
2026-04-26 12:54 13.98744 120.85492 20441 ft 370 kts 216°
2026-04-26 12:54 13.96627 120.84003 20821 ft 371 kts 216°
2026-04-26 12:54 13.94491 120.82501 21155 ft 373 kts 216°
2026-04-26 12:54 13.92314 120.80968 21471 ft 375 kts 216°
2026-04-26 12:55 13.90157 120.79451 21786 ft 377 kts 216°
2026-04-26 12:55 13.88261 120.78117 22062 ft 379 kts 216°
2026-04-26 12:55 13.86054 120.76569 22393 ft 380 kts 217°
2026-04-26 12:55 13.83867 120.75030 22735 ft 381 kts 216°
2026-04-26 12:56 13.81680 120.73493 23068 ft 383 kts 216°
2026-04-26 12:56 13.79467 120.71935 23394 ft 384 kts 216°
2026-04-26 12:56 13.77258 120.70381 23708 ft 386 kts 216°
2026-04-26 12:56 13.75053 120.68831 24026 ft 387 kts 216°
2026-04-26 12:57 13.72798 120.67245 24354 ft 389 kts 216°
2026-04-26 12:57 13.70564 120.65673 24667 ft 390 kts 216°
2026-04-26 12:57 13.68326 120.64099 24982 ft 391 kts 216°
2026-04-26 12:58 13.63808 120.60925 25597 ft 394 kts 216°
2026-04-26 12:58 13.61527 120.59370 25894 ft 396 kts 213°
2026-04-26 12:58 13.59120 120.57922 26198 ft 398 kts 210°
2026-04-26 12:58 13.56653 120.56635 26493 ft 399 kts 207°
2026-04-26 12:59 13.54115 120.55409 26794 ft 400 kts 206°
2026-04-26 12:59 13.51578 120.54190 27086 ft 402 kts 206°
2026-04-26 12:59 13.49060 120.52980 27375 ft 403 kts 206°
2026-04-26 12:59 13.46512 120.51756 27668 ft 404 kts 206°
2026-04-26 13:00 13.43966 120.50531 27959 ft 405 kts 206°
2026-04-26 13:00 13.41382 120.49286 28238 ft 406 kts 206°
2026-04-26 13:00 13.38815 120.48050 28500 ft 408 kts 206°
2026-04-26 13:00 13.36248 120.46814 28753 ft 410 kts 206°
2026-04-26 13:01 13.33647 120.45564 29006 ft 411 kts 206°
2026-04-26 13:01 13.31061 120.44321 29291 ft 412 kts 206°
2026-04-26 13:01 13.28463 120.43077 29566 ft 413 kts 206°
2026-04-26 13:01 13.25858 120.41830 29837 ft 414 kts 206°
2026-04-26 13:02 13.23236 120.40574 30090 ft 415 kts 206°
2026-04-26 13:02 13.20590 120.39305 30341 ft 417 kts 206°
2026-04-26 13:02 13.17966 120.38047 30588 ft 418 kts 206°
2026-04-26 13:02 13.15308 120.36772 30837 ft 419 kts 206°
2026-04-26 13:03 13.12657 120.35501 31083 ft 421 kts 206°
2026-04-26 13:03 13.09989 120.34222 31315 ft 422 kts 206°
2026-04-26 13:03 13.07335 120.32949 31542 ft 424 kts 206°
2026-04-26 13:03 13.04640 120.31657 31772 ft 426 kts 206°
2026-04-26 13:04 13.01953 120.30368 31986 ft 427 kts 206°
2026-04-26 13:04 12.99250 120.29073 32206 ft 429 kts 206°
2026-04-26 13:04 12.96527 120.27769 32412 ft 431 kts 206°
2026-04-26 13:04 12.93813 120.26469 32612 ft 433 kts 206°
2026-04-26 13:05 12.91091 120.25166 32842 ft 434 kts 206°
2026-04-26 13:05 12.88321 120.23840 33078 ft 436 kts 206°
2026-04-26 13:05 12.85467 120.22474 33332 ft 437 kts 206°
2026-04-26 13:05 12.82723 120.21160 33638 ft 437 kts 206°
2026-04-26 13:06 12.79941 120.19830 34002 ft 435 kts 206°
2026-04-26 13:06 12.77204 120.18521 34340 ft 434 kts 206°
2026-04-26 13:06 12.74463 120.17211 34620 ft 434 kts 206°
2026-04-26 13:06 12.71695 120.15887 34876 ft 435 kts 206°
2026-04-26 13:07 12.68967 120.14583 35097 ft 436 kts 206°
2026-04-26 13:07 12.66217 120.13269 35288 ft 437 kts 206°
2026-04-26 13:07 12.63449 120.11947 35492 ft 438 kts 206°
2026-04-26 13:07 12.60675 120.10622 35684 ft 439 kts 206°
2026-04-26 13:08 12.57871 120.09282 35858 ft 441 kts 206°
2026-04-26 13:08 12.55079 120.07948 35889 ft 442 kts 206°
2026-04-26 13:08 12.49500 120.05286 35892 ft 443 kts 206°
2026-04-26 13:09 12.43920 120.02624 35891 ft 444 kts 206°
2026-04-26 13:09 12.38306 119.99947 35892 ft 444 kts 206°
2026-04-26 13:10 12.32691 119.97272 35888 ft 444 kts 206°
2026-04-26 13:10 12.27061 119.94589 35887 ft 445 kts 206°
2026-04-26 13:11 12.21446 119.91915 35883 ft 444 kts 206°
2026-04-26 13:11 12.15818 119.89237 35879 ft 444 kts 206°
2026-04-26 13:12 12.10201 119.86565 35878 ft 445 kts 206°
2026-04-26 13:12 12.04604 119.83903 35878 ft 445 kts 206°
2026-04-26 13:13 11.98967 119.81223 35876 ft 445 kts 206°
2026-04-26 13:13 11.93321 119.78540 35875 ft 445 kts 206°
2026-04-26 13:14 11.87692 119.75866 35877 ft 444 kts 206°
2026-04-26 13:14 11.82092 119.73206 35879 ft 444 kts 206°
2026-04-26 13:15 11.76473 119.70537 35879 ft 444 kts 206°
2026-04-26 13:15 11.70876 119.67881 35880 ft 444 kts 206°
2026-04-26 13:16 11.65216 119.65240 35877 ft 445 kts 205°
2026-04-26 13:16 11.59585 119.62638 35880 ft 445 kts 205°
2026-04-26 13:17 11.51107 119.58711 35577 ft 444 kts 205°
2026-04-26 13:18 11.45513 119.56117 34634 ft 440 kts 205°
2026-04-26 13:18 11.42734 119.54829 33979 ft 438 kts 205°
2026-04-26 13:18 11.37188 119.52258 32805 ft 435 kts 205°
2026-04-26 13:19 11.34420 119.50975 32382 ft 433 kts 205°
2026-04-26 13:19 11.31679 119.49704 31952 ft 430 kts 205°
2026-04-26 13:19 11.28955 119.48442 31501 ft 427 kts 205°
2026-04-26 13:19 11.26259 119.47193 31045 ft 424 kts 205°
2026-04-26 13:20 11.23590 119.45957 30593 ft 420 kts 205°
2026-04-26 13:20 11.20957 119.44738 30138 ft 417 kts 205°
2026-04-26 13:20 11.18313 119.43514 29687 ft 413 kts 204°
2026-04-26 13:20 11.15704 119.42306 29240 ft 410 kts 204°
2026-04-26 13:21 11.13102 119.41102 28784 ft 407 kts 204°
2026-04-26 13:21 11.11402 119.40314 28488 ft 405 kts 204°
2026-04-26 13:21 11.07994 119.38738 27894 ft 401 kts 204°
2026-04-26 13:21 11.05448 119.37562 27437 ft 399 kts 204°
2026-04-26 13:22 11.02931 119.36399 26991 ft 396 kts 204°
2026-04-26 13:22 11.00425 119.35241 26538 ft 394 kts 204°
2026-04-26 13:22 10.97894 119.34072 26085 ft 392 kts 204°
2026-04-26 13:22 10.95403 119.32921 25634 ft 390 kts 204°
2026-04-26 13:23 10.92917 119.31772 25179 ft 388 kts 204°
2026-04-26 13:23 10.90451 119.30633 24725 ft 387 kts 204°
2026-04-26 13:23 10.87964 119.29485 24267 ft 385 kts 204°
2026-04-26 13:23 10.85500 119.28347 23810 ft 384 kts 204°
2026-04-26 13:24 10.83054 119.27217 23356 ft 383 kts 204°
2026-04-26 13:24 10.80629 119.26099 22906 ft 381 kts 204°
2026-04-26 13:24 10.78212 119.24983 22459 ft 380 kts 204°
2026-04-26 13:24 10.75813 119.23875 22015 ft 379 kts 204°
2026-04-26 13:25 10.73409 119.22765 21577 ft 378 kts 204°
2026-04-26 13:25 10.71004 119.21655 21138 ft 377 kts 204°
2026-04-26 13:25 10.68624 119.20557 20700 ft 376 kts 204°
2026-04-26 13:25 10.66241 119.19457 20263 ft 375 kts 204°
2026-04-26 13:26 10.63851 119.18355 19812 ft 374 kts 204°
2026-04-26 13:26 10.61500 119.17271 19366 ft 373 kts 204°
2026-04-26 13:26 10.59124 119.16175 18915 ft 371 kts 204°
2026-04-26 13:26 10.56779 119.15095 18477 ft 370 kts 204°
2026-04-26 13:27 10.54439 119.14017 18039 ft 369 kts 204°
2026-04-26 13:27 10.52111 119.12943 17595 ft 367 kts 204°
2026-04-26 13:27 10.49767 119.11863 17142 ft 366 kts 203°
2026-04-26 13:27 10.47446 119.10794 16696 ft 364 kts 203°
2026-04-26 13:28 10.45136 119.09731 16247 ft 363 kts 203°
2026-04-26 13:28 10.42844 119.08675 15808 ft 362 kts 204°
2026-04-26 13:28 10.40545 119.07616 15359 ft 361 kts 204°
2026-04-26 13:28 10.38247 119.06559 14906 ft 360 kts 204°
2026-04-26 13:29 10.35976 119.05479 14451 ft 359 kts 206°
2026-04-26 13:29 10.34516 119.04661 14154 ft 358 kts 210°
2026-04-26 13:29 10.31758 119.02760 13587 ft 355 kts 216°
2026-04-26 13:29 10.29776 119.01271 13160 ft 353 kts 216°
2026-04-26 13:30 10.27830 118.99796 12737 ft 351 kts 216°
2026-04-26 13:30 10.25863 118.98308 12314 ft 349 kts 216°
2026-04-26 13:30 10.23903 118.96830 11890 ft 347 kts 216°
2026-04-26 13:30 10.21987 118.95387 11469 ft 345 kts 216°
2026-04-26 13:31 10.20055 118.93935 11051 ft 343 kts 216°
2026-04-26 13:31 10.18134 118.92494 10629 ft 341 kts 216°
2026-04-26 13:31 10.16226 118.91065 10251 ft 337 kts 215°
2026-04-26 13:31 10.14299 118.89771 10077 ft 324 kts 202°
2026-04-26 13:32 10.12176 118.89355 9852 ft 310 kts 174°
2026-04-26 13:32 10.10098 118.89836 9485 ft 304 kts 159°
2026-04-26 13:32 10.08115 118.90567 9106 ft 301 kts 157°
2026-04-26 13:32 10.06148 118.91286 8736 ft 300 kts 158°
2026-04-26 13:33 10.04145 118.91959 8358 ft 298 kts 160°
2026-04-26 13:33 10.02178 118.92577 7996 ft 295 kts 161°
2026-04-26 13:33 10.00216 118.93171 7640 ft 293 kts 161°
2026-04-26 13:33 9.98265 118.93752 7282 ft 291 kts 161°
2026-04-26 13:34 9.96334 118.94327 6928 ft 288 kts 161°
2026-04-26 13:34 9.94388 118.94906 6566 ft 286 kts 161°
2026-04-26 13:34 9.92489 118.95472 6204 ft 284 kts 161°
2026-04-26 13:34 9.91218 118.95850 5977 ft 282 kts 161°
2026-04-26 13:35 9.88704 118.96599 5512 ft 280 kts 161°
2026-04-26 13:35 9.86830 118.97157 5163 ft 278 kts 161°
2026-04-26 13:35 9.84960 118.97715 4814 ft 276 kts 161°
2026-04-26 13:35 9.83092 118.98270 4468 ft 274 kts 162°
2026-04-26 13:36 9.81209 118.98635 4128 ft 275 kts 173°
2026-04-26 13:36 9.79277 118.98667 3790 ft 274 kts 180°
2026-04-26 13:36 9.77373 118.98579 3535 ft 268 kts 181°
2026-04-26 13:36 9.75555 118.98469 3495 ft 255 kts 184°
2026-04-26 13:37 9.73915 118.97901 3359 ft 246 kts 219°
2026-04-26 13:37 9.73003 118.96520 3264 ft 230 kts 261°
2026-04-26 13:37 9.73041 118.94995 3298 ft 207 kts 282°
2026-04-26 13:37 9.73280 118.93610 3146 ft 195 kts 282°
2026-04-26 13:38 9.73447 118.92291 2978 ft 183 kts 278°
2026-04-26 13:38 9.73544 118.91045 2762 ft 168 kts 276°
2026-04-26 13:38 9.73601 118.89912 2504 ft 155 kts 275°
2026-04-26 13:38 9.73647 118.88834 2315 ft 153 kts 275°
2026-04-26 13:39 9.73691 118.87748 2121 ft 153 kts 275°
2026-04-26 13:39 9.73737 118.86675 1916 ft 153 kts 275°
2026-04-26 13:39 9.73784 118.85593 1712 ft 153 kts 275°
2026-04-26 13:39 9.73831 118.84518 1511 ft 153 kts 275°
2026-04-26 13:40 9.73878 118.83445 1304 ft 152 kts 275°
2026-04-26 13:40 9.73924 118.82371 1102 ft 152 kts 274°
2026-04-26 13:40 9.73970 118.81305 900 ft 151 kts 274°
2026-04-26 13:40 9.74016 118.80236 694 ft 151 kts 274°
2026-04-26 13:41 9.74062 118.79184 494 ft 150 kts 273°
2026-04-26 13:41 9.74110 118.78123 309 ft 150 kts 273°
2026-04-26 13:41 9.74158 118.77062 121 ft 149 kts 272°
2026-04-26 13:41 9.74201 118.76064 74 ft 125 kts 272°
2026-04-26 13:42 9.74228 118.75445 74 ft 42 kts 269°
2026-04-26 13:42 9.74237 118.75286 74 ft 11 kts 288°
2026-04-26 13:42 9.74301 118.75250 74 ft 11 kts
2026-04-26 13:42 9.74381 118.75252 74 ft 10 kts 339°
2026-04-26 13:43 9.74408 118.75183 74 ft 11 kts 272°
2026-04-26 13:43 9.74416 118.75117 74 ft 5 kts 314°
2026-04-26 13:43 9.74455 118.75114 74 ft 6 kts
2026-04-26 13:43 9.74492 118.75117 74 ft 2 kts
2026-04-26 13:44 9.74502 118.75117 74 ft 0 kts